EW9807 Weather Reports


time (UTC)temp
C
wind
direction
speed
KPH
gust
KPH
rain 1hr
cm
rain 24hr
cm
rain mn
cm
humidity
%
barometer
mb
20260906194524 33 209 0.0 3.2 0.00 1.27 0.00 60 1008.7
20260906194025 33 114 0.0 3.2 0.00 1.27 0.00 57 1008.8
20260906193523 32 179 0.0 3.2 0.00 1.27 0.00 59 1008.8
20260906193023 32 259 1.6 3.2 0.00 1.27 0.00 61 1008.8
20260906192521 32 255 0.0 0.0 0.00 1.27 0.00 61 1008.9
20260906192024 31 255 0.0 3.2 0.00 1.27 0.00 62 1009.0
20260906191521 32 255 1.6 3.2 0.00 1.27 0.00 61 1009.0
20260906191022 32 252 0.0 4.8 0.00 1.27 0.00 60 1009.1
20260906190522 32 252 1.6 4.8 0.00 1.27 0.00 57 1009.3
20260906190018 33 256 0.0 6.4 0.00 1.27 0.00 57 1009.4
20260906185517 33 160 1.6 6.4 0.00 1.27 0.00 57 1009.5
20260906185017 33 164 1.6 6.4 0.00 1.27 0.00 59 1009.6
20260906184517 32 319 1.6 6.4 0.00 1.27 0.00 57 1009.7
20260906184016 32 27 1.6 4.8 0.00 1.27 0.00 60 1009.8
20260906183516 32 229 1.6 3.2 0.00 1.27 0.00 58 1009.8
20260906183020 32 210 0.0 3.2 0.00 1.27 0.00 58 1009.9
20260906182515 33 210 1.6 6.4 0.00 1.27 0.00 61 1009.9
20260906182014 34 176 1.6 6.4 0.00 1.27 0.00 58 1009.9
20260906181531 33 198 0.0 4.8 0.00 1.27 0.00 64 1009.9
20260906181013 33 178 0.0 6.4 0.00 1.27 0.00 59 1010.0
20260906180510 33 179 1.6 6.4 0.00 1.27 0.00 61 1010.0
20260906180023 33 83 0.0 4.8 0.00 1.27 0.00 59 1010.2
20260906175509 33 95 1.6 4.8 0.00 1.27 0.00 59 1010.2
20260906175007 32 347 0.0 3.2 0.00 1.27 0.00 63 1010.4
20260906174509 32 347 1.6 3.2 0.00 1.27 0.00 64 1010.3
20260906174007 32 347 1.6 3.2 0.00 1.27 0.00 62 1010.4
20260906173506 32 348 1.6 3.2 0.00 1.27 0.00 60 1010.5
20260906173006 32 346 0.0 4.8 0.00 1.27 0.00 62 1010.5
20260906172505 32 346 1.6 4.8 0.00 1.27 0.00 63 1010.5
20260906172005 32 346 0.0 3.2 0.00 1.27 0.00 67 1010.5
20260906171507 32 345 1.6 4.8 0.00 1.27 0.00 65 1010.5
20260906171004 32 345 1.6 4.8 0.00 1.27 0.00 64 1010.4
20260906170505 32 353 1.6 4.8 0.00 1.27 0.00 66 1010.5
20260906170003 32 357 1.6 3.2 0.00 1.27 0.00 66 1010.6
20260906165504 31 359 0.0 3.2 0.00 1.27 0.00 65 1010.6
20260906165100 31 343 0.0 3.2 0.00 1.27 0.00 65 1010.7
20260906164600 31 345 1.6 3.2 0.00 1.27 0.00 67 1010.7
20260906164058 31 296 0.0 0.0 0.00 1.27 0.00 68 1010.8
20260906163557 31 296 0.0 0.0 0.00 1.27 0.00 68 1010.8
20260906163059 31 261 0.0 0.0 0.00 1.27 0.00 67 1010.9
20260906162558 31 147 0.0 0.0 0.00 1.27 0.00 69 1010.9
20260906162055 31 147 0.0 0.0 0.00 1.27 0.00 69 1010.9
20260906161620 30 23 0.0 0.0 0.00 1.27 0.00 70 1011.0
20260906161054 30 23 0.0 0.0 0.00 1.27 0.00 72 1011.1
20260906160553 30 23 0.0 0.0 0.00 1.27 0.00 70 1011.1
20260906160052 30 23 0.0 0.0 0.00 1.27 0.00 69 1011.1
20260906155553 30 105 0.0 0.0 0.00 1.27 0.00 74 1011.2
20260906155049 30 105 0.0 0.0 0.00 1.27 0.00 74 1011.3
20260906154550 30 105 0.0 0.0 0.00 1.27 0.00 78 1011.4
20260906154051 29 105 0.0 0.0 0.00 1.27 0.00 74 1011.4
20260906153550 30 134 0.0 0.0 0.00 1.27 0.00 74 1011.4
20260906153106 30 135 0.0 0.0 0.00 1.27 0.00 75 1011.5
20260906152547 29 72 0.0 0.0 0.00 1.27 0.00 76 1011.5
20260906152049 29 71 0.0 0.0 0.00 1.27 0.00 76 1011.5
20260906151544 28 72 0.0 0.0 0.00 1.27 0.00 77 1011.5
20260906151043 28 72 0.0 0.0 0.00 1.27 0.00 79 1011.5
20260906150542 28 72 0.0 0.0 0.00 1.27 0.00 79 1011.5
20260906150041 28 72 0.0 0.0 0.00 1.27 0.00 82 1011.3
20260906145542 28 72 0.0 0.0 0.00 1.27 0.00 84 1011.3
20260906145039 27 72 0.0 0.0 0.00 1.27 0.00 83 1011.2
20260906144537 27 72 0.0 0.0 0.00 1.27 0.00 86 1011.3
20260906144036 27 72 0.0 0.0 0.00 1.27 0.00 86 1011.3
20260906143535 26 72 0.0 0.0 0.00 1.27 0.00 87 1011.3
20260906143033 26 72 0.0 0.0 0.00 1.27 0.00 88 1011.3
20260906142534 26 72 0.0 0.0 0.00 1.27 0.00 89 1011.3
20260906142032 26 72 0.0 0.0 0.00 1.27 0.00 89 1011.3
20260906141531 25 72 0.0 0.0 0.00 1.27 0.00 90 1011.3
20260906141029 25 72 0.0 0.0 0.00 1.27 0.00 91 1011.4
20260906140528 25 72 0.0 0.0 0.00 1.27 0.00 92 1011.5
20260906140026 25 72 0.0 0.0 0.00 1.27 0.00 93 1011.5
20260906135525 24 72 0.0 0.0 0.00 1.27 0.00 94 1011.4
20260906135023 24 72 0.0 0.0 0.00 1.27 0.00 95 1011.4
20260906134524 23 72 0.0 0.0 0.00 1.27 0.00 96 1011.3
20260906134022 23 72 0.0 0.0 0.00 1.27 0.00 96 1011.3
20260906133520 23 72 0.0 0.0 0.00 1.27 0.00 97 1011.3
20260906133030 23 72 0.0 0.0 0.00 1.27 0.00 97 1011.4
20260906132523 23 72 0.0 0.0 0.00 1.27 0.00 97 1011.5
20260906132018 23 72 0.0 0.0 0.00 1.27 0.00 98 1011.6
20260906131518 23 72 0.0 0.0 0.00 1.27 0.00 97 1011.6
20260906131016 23 72 0.0 0.0 0.00 1.27 0.00 98 1011.7
20260906130518 22 72 0.0 0.0 0.00 1.27 0.00 97 1011.7
20260906130021 22 72 0.0 0.0 0.00 1.27 0.00 97 1011.7
20260906125514 22 72 0.0 0.0 0.00 1.27 0.00 97 1011.7
20260906125014 22 72 0.0 0.0 0.00 1.27 0.00 98 1011.7
20260906124513 22 72 0.0 0.0 0.00 1.27 0.00 97 1011.7
20260906124013 22 72 0.0 0.0 0.00 1.27 0.00 97 1011.7
20260906123511 22 72 0.0 0.0 0.00 1.27 0.00 98 1011.5
20260906123018 22 72 0.0 0.0 0.00 1.27 0.00 97 1011.4
20260906122510 22 72 0.0 0.0 0.00 1.27 0.00 97 1011.4
20260906122010 22 72 0.0 0.0 0.00 1.27 0.00 97 1011.4
20260906121525 21 72 0.0 0.0 0.00 1.27 0.00 97 1011.3
20260906121009 21 72 0.0 0.0 0.00 1.27 0.00 97 1011.2
20260906120507 21 72 0.0 0.0 0.00 1.27 0.00 97 1011.2
20260906120007 21 72 0.0 0.0 0.00 1.27 0.00 97 1011.2
20260906115507 21 72 0.0 0.0 0.00 1.27 0.00 97 1011.2
20260906115006 21 72 0.0 0.0 0.00 1.27 0.00 97 1011.2
20260906114512 21 72 0.0 0.0 0.00 1.27 0.00 97 1011.2
20260906114005 21 72 0.0 0.0 0.00 1.27 0.00 97 1011.1
20260906113505 21 72 0.0 0.0 0.00 1.27 0.00 97 1011.3
20260906113006 21 72 0.0 0.0 0.00 1.27 0.00 97 1011.3
20260906112505 21 72 0.0 0.0 0.00 1.27 0.00 97 1011.2
20260906112005 21 72 0.0 0.0 0.00 1.27 0.00 97 1011.2
20260906111506 21 72 0.0 0.0 0.00 1.27 0.00 97 1011.1
20260906111004 21 72 0.0 0.0 0.00 1.27 0.00 97 1011.2
20260906110505 21 72 0.0 0.0 0.00 1.27 0.00 97 1011.1
20260906110004 21 72 0.0 0.0 0.00 1.27 0.00 97 1011.1
20260906105504 21 72 0.0 0.0 0.00 1.27 0.00 97 1011.1
20260906105004 21 72 0.0 0.0 0.00 1.27 0.00 97 1011.1
20260906104504 21 72 0.0 0.0 0.00 1.27 0.00 97 1011.1
20260906104004 21 72 0.0 0.0 0.00 1.27 0.00 97 1011.1
20260906103503 21 72 0.0 0.0 0.00 1.27 0.00 97 1011.0
20260906103011 21 72 0.0 0.0 0.00 1.27 0.00 97 1011.1
20260906102502 21 72 0.0 0.0 0.00 1.27 0.00 97 1011.1
20260906102004 21 72 0.0 0.0 0.00 1.27 0.00 97 1011.0
20260906101503 21 72 0.0 0.0 0.00 1.27 0.00 97 1011.0
20260906101002 21 72 0.0 0.0 0.00 1.27 0.00 97 1011.0
20260906100502 21 72 0.0 0.0 0.00 1.27 0.00 97 1011.0
20260906100003 21 72 0.0 0.0 0.00 1.27 0.00 97 1010.9
20260906095502 21 72 0.0 0.0 0.00 1.27 0.00 97 1010.9
20260906095002 22 72 0.0 0.0 0.00 1.27 0.00 97 1010.9
20260906094502 22 72 0.0 0.0 0.00 1.27 0.00 97 1010.8
20260906094005 22 72 0.0 0.0 0.00 1.27 0.00 97 1010.9
20260906093501 21 72 0.0 0.0 0.00 1.27 0.00 97 1010.9
20260906093001 21 72 0.0 0.0 0.00 1.27 0.00 97 1010.9
20260906092502 22 72 0.0 0.0 0.00 1.27 0.00 97 1010.9
20260906092002 22 72 0.0 0.0 0.00 1.27 0.00 97 1010.9
20260906091503 22 72 0.0 0.0 0.00 1.27 0.00 97 1010.8
20260906091100 22 72 0.0 0.0 0.00 1.27 0.00 97 1010.8
20260906090559 21 72 0.0 0.0 0.00 1.27 0.00 97 1010.8
20260906090100 21 72 0.0 0.0 0.00 1.27 0.00 97 1010.8
20260906085559 21 72 0.0 0.0 0.00 1.27 0.00 97 1010.7
20260906085101 21 72 0.0 0.0 0.00 1.27 0.00 97 1010.6
20260906084600 21 72 0.0 0.0 0.00 1.27 0.00 97 1010.7
20260906084100 22 72 0.0 0.0 0.00 1.27 0.00 97 1010.6
20260906083559 22 72 0.0 0.0 0.00 1.27 0.00 97 1010.4
20260906083104 22 72 0.0 0.0 0.00 1.27 0.00 97 1010.4
20260906082602 22 72 0.0 0.0 0.00 1.27 0.00 97 1010.5
20260906082059 22 72 0.0 0.0 0.00 1.27 0.00 97 1010.5
20260906081558 22 72 0.0 0.0 0.00 1.27 0.00 97 1010.5
20260906081058 22 72 0.0 0.0 0.00 1.27 0.00 97 1010.5
20260906080558 22 72 0.0 0.0 0.00 1.27 0.00 97 1010.4
20260906080056 22 72 0.0 0.0 0.00 1.27 0.00 97 1010.4
20260906075556 22 72 0.0 0.0 0.00 1.27 0.00 97 1010.5
20260906075056 22 72 0.0 0.0 0.00 1.27 0.00 97 1010.6
20260906074555 22 72 0.0 0.0 0.00 1.27 0.00 97 1010.6
20260906074054 22 72 0.0 0.0 0.00 1.27 0.00 97 1010.6
20260906073559 22 72 0.0 0.0 0.00 1.27 0.00 97 1010.7
20260906073055 22 72 0.0 0.0 0.00 1.27 0.00 97 1010.6
20260906072554 22 72 0.0 0.0 0.00 1.27 0.00 97 1010.6
20260906072054 22 72 0.0 0.0 0.00 1.27 0.00 97 1010.7
20260906071554 22 72 0.0 0.0 0.00 1.27 0.00 97 1010.8
20260906071053 22 72 0.0 0.0 0.00 1.27 0.00 97 1010.8
20260906070553 22 72 0.0 0.0 0.00 1.27 0.00 97 1010.8
20260906070053 22 72 0.0 0.0 0.00 1.27 0.00 97 1010.7
20260906065553 22 72 0.0 0.0 0.00 1.27 0.00 97 1010.7
20260906065052 22 72 0.0 0.0 0.00 1.27 0.00 97 1010.8
20260906064552 22 72 0.0 0.0 0.00 1.27 0.00 97 1010.9
20260906064053 22 72 0.0 0.0 0.00 1.27 0.00 97 1010.9
20260906063551 22 72 0.0 0.0 0.00 1.27 0.00 97 1010.9
20260906063051 22 72 0.0 0.0 0.00 1.27 0.00 97 1010.9
20260906062552 22 72 0.0 0.0 0.00 1.27 0.00 97 1010.9
20260906062050 22 72 0.0 0.0 0.00 1.27 0.00 97 1010.9
20260906061551 22 72 0.0 0.0 0.00 1.27 0.00 97 1011.0
20260906061049 22 72 0.0 0.0 0.00 1.27 0.00 97 1011.1
20260906060549 22 72 0.0 0.0 0.00 1.27 0.00 97 1011.2
20260906060104 22 72 0.0 0.0 0.00 1.27 0.00 97 1011.1
20260906055552 22 72 0.0 0.0 0.00 1.27 0.00 96 1011.1
20260906055049 22 72 0.0 0.0 0.00 1.27 0.00 96 1011.0
20260906054553 22 72 0.0 0.0 0.00 1.27 0.00 96 1011.0
20260906054050 22 72 0.0 0.0 0.00 1.27 0.00 96 1011.1
20260906053547 22 72 0.0 0.0 0.00 1.27 0.00 96 1011.1
20260906053049 22 72 0.0 0.0 0.00 1.27 0.00 96 1011.1
20260906052547 22 72 0.0 0.0 0.00 1.27 0.00 96 1011.1
20260906052048 22 72 0.0 0.0 0.00 1.27 0.00 96 1011.1
20260906051548 22 72 0.0 0.0 0.00 1.27 0.00 96 1011.1
20260906051050 22 72 0.0 0.0 0.00 1.27 0.00 96 1011.1
20260906050548 22 72 0.0 0.0 0.00 1.27 0.00 96 1011.1
20260906050046 22 72 0.0 0.0 0.00 1.27 0.00 96 1011.1
20260906045545 22 72 0.0 0.0 0.00 1.27 0.00 96 1011.2
20260906045046 22 72 0.0 0.0 0.00 1.27 0.00 96 1011.2
20260906044545 22 72 0.0 0.0 0.00 1.27 0.00 96 1011.3
20260906044046 22 72 0.0 0.0 0.00 1.27 0.00 96 1011.2
20260906043545 22 72 0.0 0.0 0.00 1.27 0.00 96 1011.2
20260906043045 22 72 0.0 0.0 0.00 1.27 0.00 96 1011.2
20260906042544 22 72 0.0 0.0 0.00 1.27 0.00 96 1011.1
20260906042044 22 72 0.0 0.0 0.00 1.27 0.00 96 1011.0
20260906041544 22 72 0.0 0.0 0.00 1.27 0.00 96 1011.1
20260906041043 22 72 0.0 1.6 0.00 1.27 0.00 96 1011.0
20260906040542 22 72 0.0 1.6 0.00 1.27 0.00 96 1011.1
20260906040042 22 72 0.0 1.6 0.00 1.27 0.00 96 1011.1
20260906035543 22 72 0.0 1.6 0.00 1.27 1.27 96 1011.1
20260906035041 22 72 0.0 1.6 0.00 1.27 1.27 96 1011.0
20260906034554 22 72 0.0 1.6 0.00 1.27 1.27 96 1011.0
20260906034045 22 72 0.0 1.6 0.00 1.27 1.27 96 1011.1
20260906033541 22 72 0.0 1.6 0.00 1.27 1.27 96 1011.1
20260906033044 22 72 0.0 1.6 0.00 1.27 1.27 96 1011.1
20260906032540 22 72 0.0 1.6 0.00 1.27 1.27 96 1011.2
20260906032041 22 72 0.0 1.6 0.00 1.27 1.27 96 1011.3
20260906031541 22 72 0.0 4.8 0.00 1.27 1.27 96 1011.3
20260906031040 22 72 0.0 4.8 0.00 1.27 1.27 96 1011.4
20260906030540 22 194 0.0 1.6 0.00 1.27 1.27 96 1011.7
20260906030042 22 194 0.0 1.6 0.00 1.27 1.27 96 1011.7
20260906025539 22 194 0.0 1.6 0.00 1.27 1.27 96 1011.8
20260906025043 22 194 0.0 1.6 0.00 1.27 1.27 95 1011.9
20260906024540 22 194 0.0 1.6 0.00 1.27 1.27 95 1011.8
20260906024039 22 194 0.0 1.6 0.00 1.27 1.27 95 1011.8
20260906023539 22 194 0.0 1.6 0.00 1.27 1.27 95 1011.8
20260906023038 22 194 0.0 0.0 0.00 1.27 1.27 95 1011.6
20260906022539 22 194 0.0 0.0 0.00 1.27 1.27 95 1011.7
20260906022039 22 194 0.0 1.6 0.00 1.27 1.27 95 1011.8
20260906021542 22 194 0.0 1.6 0.00 1.27 1.27 95 1011.7
20260906021037 22 194 0.0 1.6 0.00 1.27 1.27 95 1011.7
20260906020538 22 194 0.0 1.6 0.00 1.27 1.27 95 1011.7
20260906020038 22 194 0.0 1.6 0.00 1.27 1.27 95 1011.8
20260906015537 22 194 0.0 4.8 0.00 1.27 1.27 95 1011.6
20260906015037 22 194 0.0 4.8 0.00 1.27 1.27 94 1011.6
20260906014546 22 234 0.0 0.0 0.00 1.27 1.27 95 1011.7
20260906014037 22 234 0.0 0.0 0.00 1.27 1.27 95 1011.7
20260906013539 22 234 0.0 0.0 0.00 1.27 1.27 95 1011.7
20260906013038 22 234 0.0 0.0 0.00 1.27 1.27 95 1011.7
20260906012536 22 234 0.0 0.0 0.00 1.27 1.27 95 1011.5
20260906012038 22 234 0.0 0.0 0.00 1.27 1.27 94 1011.8
20260906011537 22 234 0.0 0.0 0.00 1.27 1.27 95 1011.7
20260906011036 22 234 0.0 0.0 0.00 1.27 1.27 95 1011.5
20260906010536 22 234 0.0 0.0 0.00 1.27 1.27 94 1011.3
20260906010040 22 234 0.0 0.0 0.00 1.27 1.27 94 1011.2
20260906005535 22 234 0.0 0.0 0.03 1.27 1.27 94 1010.9
20260906005038 22 234 0.0 1.6 0.08 1.27 1.27 94 1010.6
20260906004536 22 234 0.0 1.6 0.23 1.27 1.27 94 1010.7
20260906004035 22 234 0.0 1.6 0.36 1.27 1.27 93 1010.7
20260906003535 22 234 0.0 3.2 0.81 1.27 1.27 93 1010.6
20260906003034 22 234 0.0 3.2 1.24 1.27 1.27 93 1010.6
20260906002533 22 238 0.0 3.2 1.27 1.27 1.27 92 1010.7
20260906002033 22 238 0.0 4.8 1.27 1.27 1.27 92 1010.5
20260906001547 22 269 1.6 6.4 1.27 1.27 1.27 91 1010.4
20260906001031 22 207 1.6 8.0 1.27 1.27 1.27 91 1010.0
20260906000531 22 175 0.0 8.0 1.27 1.27 1.27 91 1010.4
20260906000035 23 177 0.0 11.3 1.27 1.27 1.27 91 1010.3
20260905235531 23 182 4.8 11.3 1.24 1.24 1.24 90 1010.4
20260905235031 23 58 3.2 11.3 1.17 1.17 1.17 88 1011.1
20260905234531 23 212 4.8 11.3 1.04 1.04 1.04 88 1011.3
20260905234031 24 183 3.2 9.7 0.84 0.84 0.84 85 1010.6
20260905233531 26 345 1.6 6.4 0.38 0.38 0.38 82 1011.0
20260905233032 27 349 1.6 11.3 0.00 0.00 0.00 75 1011.3
20260905232530 29 311 3.2 14.5 0.00 0.00 0.00 67 1011.0
20260905232030 30 344 4.8 11.3 0.00 0.00 0.00 68 1010.5
20260905231530 31 313 3.2 11.3 0.00 0.00 0.00 70 1009.6
20260905231031 31 231 3.2 12.9 0.00 0.00 0.00 70 1009.2
20260905230529 31 240 4.8 12.9 0.00 0.00 0.00 70 1009.0
20260905230034 31 183 4.8 12.9 0.00 0.00 0.00 70 1009.0
20260905225535 31 240 6.4 14.5 0.00 0.00 0.00 70 1009.3
20260905225029 31 172 8.0 16.1 0.00 0.00 0.00 70 1009.3
20260905224532 31 236 4.8 16.1 0.00 0.00 0.00 69 1009.1
20260905224029 32 186 3.2 11.3 0.00 0.00 0.00 69 1009.1
20260905223528 32 181 3.2 14.5 0.00 0.00 0.00 68 1009.1
20260905223041 32 212 6.4 14.5 0.00 0.00 0.00 68 1009.0
20260905222528 32 223 3.2 14.5 0.00 0.00 0.00 67 1009.0
20260905222027 32 172 4.8 11.3 0.00 0.00 0.00 66 1009.0
20260905221528 32 186 3.2 9.7 0.00 0.00 0.00 66 1008.9
20260905221027 33 181 3.2 16.1 0.00 0.00 0.00 64 1009.0
20260905220530 33 188 6.4 16.1 0.00 0.00 0.00 63 1008.8
20260905220027 33 200 4.8 16.1 0.00 0.00 0.00 61 1008.8
20260905215527 33 176 6.4 16.1 0.00 0.00 0.00 60 1008.8
20260905215027 34 180 6.4 14.5 0.00 0.00 0.00 58 1008.8
20260905214526 34 200 3.2 8.0 0.00 0.00 0.00 56 1008.6
20260905214026 34 180 3.2 8.0 0.00 0.00 0.00 52 1008.6
20260905213528 34 194 0.0 3.2 0.00 0.00 0.00 52 1008.7
20260905213026 34 194 0.0 4.8 0.00 0.00 0.00 53 1008.6
20260905212528 34 192 0.0 4.8 0.00 0.00 0.00 52 1008.6
20260905212025 34 190 0.0 3.2 0.00 0.00 0.00 50 1008.6
20260905211525 35 193 1.6 11.3 0.00 0.00 0.00 50 1008.6
20260905211024 35 193 3.2 11.3 0.00 0.00 0.00 50 1008.7
20260905210524 35 178 4.8 9.7 0.00 0.00 0.00 49 1008.7
20260905210032 35 169 1.6 8.0 0.00 0.00 0.00 51 1008.8
20260905205523 35 136 3.2 11.3 0.00 0.00 0.00 50 1008.8
20260905205022 35 176 3.2 11.3 0.00 0.00 0.00 51 1008.9
20260905204522 34 163 0.0 3.2 0.00 0.00 0.00 53 1008.9
20260905204020 34 163 0.0 3.2 0.00 0.00 0.00 52 1009.1
20260905203524 35 163 0.0 8.0 0.00 0.00 0.00 52 1009.1
20260905203020 35 186 0.0 8.0 0.00 0.00 0.00 50 1009.2
20260905202519 35 186 1.6 8.0 0.00 0.00 0.00 49 1009.3
20260905202019 35 271 1.6 4.8 0.00 0.00 0.00 49 1009.3
20260905201523 35 271 1.6 8.0 0.00 0.00 0.00 49 1009.3
20260905201017 35 191 1.6 11.3 0.00 0.00 0.00 48 1009.4
20260905200520 35 176 4.8 11.3 0.00 0.00 0.00 50 1009.6
20260905200018 35 193 1.6 8.0 0.00 0.00 0.00 49 1009.8
20260905195513 35 165 4.8 8.0 0.00 0.00 0.00 48 1009.9